TimeMDT,TemperatureF,Dew PointF,Humidity,Sea Level PressureIn,VisibilityMPH,Wind Direction,Wind SpeedMPH,Gust SpeedMPH,PrecipitationIn,Events,Conditions,WindDirDegrees,DateUTC
12:53 AM,42.1,37.0,82,29.93,10.0,West,4.6,-,N/A,,Scattered Clouds,270,2013-10-09 06:53:00
1:53 AM,42.1,36.0,79,29.92,10.0,Calm,Calm,-,N/A,,Mostly Cloudy,0,2013-10-09 07:53:00
2:53 AM,41.0,36.0,82,29.92,10.0,NW,4.6,-,N/A,,Clear,310,2013-10-09 08:53:00
3:53 AM,41.0,36.0,82,29.91,10.0,NW,5.8,-,N/A,,Clear,320,2013-10-09 09:53:00
4:53 AM,42.1,36.0,79,29.91,10.0,NW,4.6,-,N/A,,Clear,320,2013-10-09 10:53:00
5:53 AM,42.1,35.1,76,29.92,10.0,NNW,6.9,-,N/A,,Clear,330,2013-10-09 11:53:00
6:53 AM,42.1,35.1,76,29.92,10.0,NNW,10.4,-,N/A,,Clear,330,2013-10-09 12:53:00
7:53 AM,42.1,35.1,76,29.94,10.0,North,3.5,-,N/A,,Clear,360,2013-10-09 13:53:00
8:53 AM,43.0,35.1,74,29.96,10.0,Calm,Calm,-,N/A,,Clear,0,2013-10-09 14:53:00
9:53 AM,48.9,37.0,64,29.95,10.0,NW,10.4,-,N/A,,Clear,320,2013-10-09 15:53:00
10:53 AM,53.1,36.0,52,29.94,10.0,NNW,8.1,-,N/A,,Clear,330,2013-10-09 16:53:00
11:53 AM,55.9,35.1,45,29.93,10.0,North,8.1,-,N/A,,Clear,350,2013-10-09 17:53:00
12:53 PM,60.1,36.0,41,29.91,10.0,NW,13.8,19.6,N/A,,Clear,320,2013-10-09 18:53:00
1:53 PM,61.0,35.1,38,29.88,10.0,NNW,11.5,-,N/A,,Clear,340,2013-10-09 19:53:00
2:53 PM,62.1,34.0,35,29.84,10.0,NW,19.6,25.3,N/A,,Clear,310,2013-10-09 20:53:00
3:53 PM,63.0,33.1,33,29.83,10.0,NW,13.8,-,N/A,,Clear,310,2013-10-09 21:53:00
4:53 PM,64.0,35.1,34,29.81,10.0,NW,16.1,-,N/A,,Clear,320,2013-10-09 22:53:00
5:53 PM,61.0,35.1,38,29.82,10.0,NW,19.6,26.5,N/A,,Clear,310,2013-10-09 23:53:00
6:53 PM,57.9,34.0,41,29.82,10.0,NW,15.0,-,N/A,,Clear,320,2013-10-10 00:53:00
7:53 PM,54.0,35.1,49,29.83,10.0,NW,16.1,-,N/A,,Clear,310,2013-10-10 01:53:00
8:53 PM,52.0,36.0,54,29.83,10.0,NW,19.6,27.6,N/A,,Clear,310,2013-10-10 02:53:00
9:53 PM,51.1,36.0,56,29.83,10.0,NW,18.4,-,N/A,,Clear,320,2013-10-10 03:53:00
10:53 PM,50.0,36.0,59,29.83,10.0,NW,16.1,-,N/A,,Clear,310,2013-10-10 04:53:00
11:53 PM,48.9,36.0,61,29.84,10.0,NW,15.0,-,N/A,,Clear,310,2013-10-10 05:53:00